Date String (YYYY-MM-DD hh:mm:ss) UTC,Instrument flags,absolute air pressure of the measurement (hPa),sample flow rate (lpm),inlet stack bypass flow (lpm),air temperature of the measurement (°C),ambient temperature measured by the external sensor (°C),aerosol sample conditioner tube jacket temperature (°C),OPC LED temperature (°C),internal box temperature (°C),relative humidity of the measurement (%),span deviation,mass concentration of particles derived from Lorenz-Mie calculation of OPC scattering (μg/m³),mass concentration of particles derived from Lorenz-Mie calculation of OPC scattering (μg/m³),mass concentration of particles derived from Lorenz-Mie calculation of OPC scattering (μg/m³)
DateTimeUTC,F1_M11,P_M11,Q1_M11,Q2_M11,T1_M11,T2_M11,T3_M11,T4_M11,T5_M11,U1_M11,ZSPAN_M11,X0_M11,X2_M11,X1_M11
2024-05-16 07:00:00,SystemResetWarning,0828.9,5.00,000.00,025.3,024.7,000.0,033.4,027.1,027.8,0000.0,0005.21,0002.64,0001.84
2024-05-16 07:01:00,SystemResetWarning,0828.9,5.01,000.00,025.3,024.8,000.0,033.4,027.2,027.7,0000.0,0005.00,0002.62,0001.86
2024-05-16 07:02:00,SystemResetWarning,0828.9,5.00,000.00,025.4,024.8,000.0,033.5,027.2,027.6,0000.0,0004.85,0002.61,0001.85
2024-05-16 07:03:00,SystemResetWarning,0829.0,5.00,000.00,025.4,024.8,000.0,033.5,027.2,027.5,0000.0,0004.86,0002.61,0001.84
2024-05-16 07:04:00,SystemResetWarning,0829.0,5.01,000.00,025.4,024.8,000.0,033.5,027.2,027.4,0000.0,0004.70,0002.58,0001.82
2024-05-16 07:05:00,SystemResetWarning,0828.9,4.99,000.00,025.4,024.9,000.0,033.5,027.3,027.3,0000.0,0004.21,0002.53,0001.81
2024-05-16 07:06:00,SystemResetWarning,0828.9,4.99,000.00,025.5,024.9,000.0,033.6,027.3,027.2,0000.0,0004.03,0002.52,0001.78
2024-05-16 07:07:00,SystemResetWarning,0828.9,4.99,000.00,025.5,024.9,000.0,033.6,027.3,027.1,0000.0,0004.09,0002.51,0001.78
2024-05-16 07:08:00,SystemResetWarning,0828.8,5.00,000.00,025.5,024.9,000.0,033.6,027.3,027.1,0000.0,0004.17,0002.54,0001.81
2024-05-16 07:09:00,SystemResetWarning,0828.8,5.00,000.00,025.5,024.9,000.0,033.6,027.4,027.0,0000.0,0004.26,0002.57,0001.83
2024-05-16 07:10:00,SystemResetWarning,0828.8,5.00,000.00,025.5,025.0,000.0,033.6,027.4,027.0,0000.0,0004.18,0002.55,0001.83
2024-05-16 07:11:00,SystemResetWarning,0828.8,5.00,000.00,025.6,025.0,000.0,033.7,027.4,026.9,0000.0,0004.04,0002.47,0001.81
2024-05-16 07:12:00,SystemResetWarning,0828.8,5.00,000.00,025.6,025.0,000.0,033.7,027.4,026.7,0000.0,0004.07,0002.46,0001.81
2024-05-16 07:13:00,SystemResetWarning,0828.8,5.00,000.00,025.6,025.0,000.0,033.7,027.4,026.6,0000.0,0004.00,0002.43,0001.80
2024-05-16 07:14:00,SystemResetWarning,0828.8,5.00,000.00,025.6,025.0,000.0,033.7,027.4,026.6,0000.0,0003.92,0002.41,0001.80
2024-05-16 07:15:00,SystemResetWarning,0828.8,5.01,000.00,025.6,025.0,000.0,033.7,027.4,026.7,0000.0,0004.08,0002.43,0001.81
2024-05-16 07:16:00,SystemResetWarning,0828.8,5.00,000.00,025.7,025.1,000.0,033.7,027.5,026.5,0000.0,0004.33,0002.45,0001.82
2024-05-16 07:17:00,SystemResetWarning,0828.8,4.99,000.00,025.7,025.1,000.0,033.8,027.5,026.3,0000.0,0004.68,0002.47,0001.83
2024-05-16 07:18:00,SystemResetWarning,0828.8,5.00,000.00,025.7,025.1,000.0,033.8,027.5,026.4,0000.0,0004.74,0002.46,0001.84
2024-05-16 07:19:00,SystemResetWarning,0828.8,5.00,000.00,025.7,025.1,000.0,033.8,027.5,026.4,0000.0,0005.23,0002.44,0001.83
2024-05-16 07:20:00,SystemResetWarning,0828.8,5.00,000.00,025.7,025.1,000.0,033.8,027.5,026.3,0000.0,0005.33,0002.41,0001.80
2024-05-16 07:21:00,SystemResetWarning,0828.8,5.00,000.00,025.7,025.1,000.0,033.8,027.5,026.3,0000.0,0005.24,0002.37,0001.79
2024-05-16 07:22:00,SystemResetWarning,0828.8,4.99,000.00,025.7,025.1,000.0,033.9,027.5,025.9,0000.0,0005.47,0002.42,0001.78
2024-05-16 07:23:00,SystemResetWarning,0828.9,5.00,000.00,025.8,025.1,000.0,033.9,027.6,026.0,0000.0,0005.48,0002.41,0001.77
2024-05-16 07:24:00,SystemResetWarning,0828.8,5.00,000.00,025.8,025.2,000.0,033.9,027.6,026.0,0000.0,0006.02,0002.43,0001.76
2024-05-16 07:25:00,SystemResetWarning,0828.8,5.00,000.00,025.8,025.2,000.0,033.9,027.6,026.3,0000.0,0006.30,0002.43,0001.77
2024-05-16 07:26:00,SystemResetWarning,0828.8,5.01,000.00,025.8,025.2,000.0,033.9,027.6,026.5,0000.0,0006.29,0002.47,0001.78
2024-05-16 07:27:00,SystemResetWarning,0828.8,5.00,000.00,025.8,025.2,000.0,033.9,027.6,026.5,0000.0,0005.98,0002.43,0001.78
2024-05-16 07:28:00,SystemResetWarning,0828.8,5.00,000.00,025.8,025.2,000.0,034.0,027.6,026.5,0000.0,0005.65,0002.40,0001.77
2024-05-16 07:29:00,SystemResetWarning,0828.8,4.99,000.00,025.8,025.2,000.0,034.0,027.7,026.4,0000.0,0005.89,0002.44,0001.77
2024-05-16 07:30:00,SystemResetWarning,0828.8,4.99,000.00,025.9,025.2,000.0,034.0,027.7,026.4,0000.0,0005.84,0002.46,0001.78
2024-05-16 07:31:00,SystemResetWarning,0828.8,5.00,000.00,025.9,025.3,000.0,034.0,027.7,026.3,0000.0,0005.40,0002.45,0001.79
2024-05-16 07:32:00,SystemResetWarning,0828.7,5.01,000.00,025.9,025.3,000.0,034.0,027.7,026.4,0000.0,0005.47,0002.46,0001.79
2024-05-16 07:33:00,SystemResetWarning,0828.8,5.00,000.00,025.9,025.3,000.0,034.0,027.7,026.4,0000.0,0005.52,0002.44,0001.80
2024-05-16 07:34:00,SystemResetWarning,0828.7,5.00,000.00,025.9,025.0,000.0,034.1,027.5,026.5,0000.0,0005.46,0002.44,0001.81
2024-05-16 07:35:00,SystemResetWarning,0828.7,4.99,000.00,025.6,022.9,000.0,034.1,026.4,027.0,0000.0,0005.13,0002.46,0001.83
2024-05-16 07:36:00,SystemResetWarning,0828.7,5.00,000.00,025.1,021.7,000.0,034.1,025.7,027.9,0000.0,0004.71,0002.48,0001.84
2024-05-16 07:37:00,SystemResetWarning,0828.6,5.02,000.00,024.9,021.8,000.0,034.0,025.6,028.4,0000.0,0004.67,0002.50,0001.84
2024-05-16 07:38:00,SystemResetWarning,0828.6,5.00,000.00,024.8,022.2,000.0,033.8,025.9,028.7,0000.0,0005.46,0002.72,0001.87
2024-05-16 07:39:00,SystemResetWarning,0828.7,5.00,000.00,024.8,022.6,000.0,033.7,026.1,028.7,0000.0,0006.13,0002.97,0001.89
2024-05-16 07:40:00,SystemResetWarning,0828.7,4.99,000.00,024.8,022.9,000.0,033.6,026.3,028.8,0000.0,0006.71,0003.11,0001.91
2024-05-16 07:41:00,SystemResetWarning,0828.6,5.00,000.00,024.8,023.2,000.0,033.5,026.4,028.8,0000.0,0008.70,0003.25,0001.94
2024-05-16 07:42:00,SystemResetWarning,0828.6,5.00,000.00,024.8,023.5,000.0,033.5,026.5,028.9,0000.0,0010.99,0003.32,0001.97
2024-05-16 07:43:00,SystemResetWarning,0828.6,5.00,000.00,024.9,023.7,000.0,033.4,026.6,028.9,0000.0,0012.19,0003.44,0002.00
2024-05-16 07:44:00,SystemResetWarning,0828.6,5.01,000.00,024.9,023.8,000.0,033.4,026.6,029.0,0000.0,0012.95,0003.49,0002.04
2024-05-16 07:45:00,SystemResetWarning,0828.6,4.99,000.00,024.9,024.0,000.0,033.4,026.7,028.9,0000.0,0013.20,0003.58,0002.07
2024-05-16 07:46:00,SystemResetWarning,0828.6,4.98,000.00,025.0,024.1,000.0,033.4,026.8,028.9,0000.0,0013.68,0003.62,0002.08
2024-05-16 07:47:00,SystemResetWarning,0828.6,5.01,000.00,025.0,024.2,000.0,033.4,026.8,028.8,0000.0,0014.63,0003.70,0002.10
2024-05-16 07:48:00,SystemResetWarning,0828.6,5.01,000.00,025.0,024.3,000.0,033.4,026.9,028.8,0000.0,0015.19,0003.76,0002.11
2024-05-16 07:49:00,SystemResetWarning,0828.6,5.01,000.00,025.1,024.4,000.0,033.4,026.9,028.8,0000.0,0015.55,0003.71,0002.11
2024-05-16 07:50:00,SystemResetWarning,0828.6,4.98,000.00,025.1,024.4,000.0,033.4,026.9,028.8,0000.0,0016.34,0003.69,0002.13
2024-05-16 07:51:00,SystemResetWarning,0828.6,5.00,000.00,025.1,024.5,000.0,033.4,027.0,028.7,0000.0,0016.72,0003.64,0002.14
2024-05-16 07:52:00,SystemResetWarning,0828.6,5.01,000.00,025.2,024.5,000.0,033.4,027.0,028.7,0000.0,0015.00,0003.55,0002.14
2024-05-16 07:53:00,SystemResetWarning,0828.6,5.01,000.00,025.2,024.6,000.0,033.4,027.1,028.7,0000.0,0013.39,0003.55,0002.14
2024-05-16 07:54:00,SystemResetWarning,0828.6,5.01,000.00,025.2,024.6,000.0,033.4,027.1,028.6,0000.0,0012.94,0003.51,0002.14
2024-05-16 07:55:00,SystemResetWarning,0828.6,4.99,000.00,025.3,024.7,000.0,033.5,027.1,028.6,0000.0,0012.04,0003.51,0002.14
2024-05-16 07:56:00,SystemResetWarning,0828.6,4.99,000.00,025.3,024.7,000.0,033.5,027.2,028.3,0000.0,0012.68,0003.52,0002.16
2024-05-16 07:57:00,SystemResetWarning,0828.6,5.00,000.00,025.3,024.7,000.0,033.5,027.2,028.1,0000.0,0013.55,0003.55,0002.19
2024-05-16 07:58:00,SystemResetWarning,0828.6,4.99,000.00,025.3,024.8,000.0,033.5,027.2,027.9,0000.0,0014.13,0003.57,0002.21
2024-05-16 07:59:00,SystemResetWarning,0828.5,5.00,000.00,025.4,024.8,000.0,033.5,027.2,027.6,0000.0,0014.37,0003.53,0002.20
